^^
Marion, Virginia Banner
 

U.S. Satellite Loop
U.S. National Satellite Loop
View Satellite

Live Doppler Radar
Blacksburg, VA Nexrad Doppler Radar
View Radar

NW Atlantic Satellite
U.S. National Satellite Loop
View Satellite

US WX Conditions
US Weather Conditions
View Wx Conditions


USA Weather Finder


 

Adwolf, VA. Station Historical Data
[ Providing Data Since 6/07/2007 ]
Station Historical Data
Daily Summary for April 20, 2017 Units:  Both    English   Metric
« Previous Day
Next Day »
Daily Weekly Monthly Yearly Custom
  High: Low: Average:
Temperature: TemperatureF °F /  -17.8 °C 53.8 °F /  12.1 °C 63.8 °F /  17.7 °C
Dew Point: DewpointF °F /  -17.8 °C 52.2 °F /  11.2 °C 57.6 °F /  14.2 °C
Humidity: Humidity% 54% 81%
Wind Speed: WindSpeedMPHmph /  0km/h - 4mph /  6.4km/h
Wind Gust: WindSpeedGustMPHmph /  0km/h - -
Wind- - South
Pressure: PressureIn in /  0 hPa 30.02 in /  1016.5 hPa -
Precipitation: 0.00 in /  0 mm    
Historical Graphs
 
 
Tabular Data for April 20, 2017
Time Temperature Dew Point Pressure Wind Wind Speed Wind Gust Humidity Rainfall Rate (Hourly) solar Conditions
TemperatureF °F /  -17.8 °C DewpointF °F /  -17.8 °C PressureInin /  0hPa Calm     Humidity% HourlyPrecipInin /  0mm SoftwareType W/m2 Conditions
00:04 60.6 °F /  15.9 °C 57.0 °F /  13.9 °C 30.20in /  1022.6hPa ESE 2.3mph /  3.7km/h 2.3mph /  3.7km/h 88% 0.00in /  0mm WeatherDisplay:10.37 W/m2 RA
00:09 60.5 °F /  15.8 °C 56.9 °F /  13.8 °C 30.20in /  1022.6hPa East 3.5mph /  5.6km/h 3.5mph /  5.6km/h 88% 0.00in /  0mm WeatherDisplay:10.37 W/m2 RA
00:14 60.4 °F /  15.8 °C 56.8 °F /  13.8 °C 30.20in /  1022.6hPa East 1.2mph /  1.9km/h 1.2mph /  1.9km/h 88% 0.00in /  0mm WeatherDisplay:10.37 W/m2 CLR
00:19 60.2 °F /  15.7 °C 56.9 °F /  13.8 °C 30.20in /  1022.6hPa East 2.3mph /  3.7km/h 2.3mph /  3.7km/h 89% 0.00in /  0mm WeatherDisplay:10.37 W/m2 CLR
00:24 60.1 °F /  15.6 °C 56.5 °F /  13.6 °C 30.20in /  1022.6hPa East 1.2mph /  1.9km/h 1.2mph /  1.9km/h 88% 0.00in /  0mm WeatherDisplay:10.37 W/m2 CLR
00:29 60.0 °F /  15.6 °C 56.7 °F /  13.7 °C 30.20in /  1022.6hPa East 3.5mph /  5.6km/h 3.5mph /  5.6km/h 89% 0.00in /  0mm WeatherDisplay:10.37 W/m2 CLR
00:34 59.8 °F /  15.4 °C 56.5 °F /  13.6 °C 30.20in /  1022.6hPa East 2.3mph /  3.7km/h 2.3mph /  3.7km/h 89% 0.00in /  0mm WeatherDisplay:10.37 W/m2 CLR
00:39 59.7 °F /  15.4 °C 56.4 °F /  13.6 °C 30.21in /  1022.9hPa East 1.2mph /  1.9km/h 1.2mph /  1.9km/h 89% 0.00in /  0mm WeatherDisplay:10.37 W/m2 CLR
00:44 59.5 °F /  15.3 °C 56.2 °F /  13.4 °C 30.21in /  1022.9hPa East 1.2mph /  1.9km/h   89% 0.00in /  0mm WeatherDisplay:10.37 W/m2 CLR
00:49 59.3 °F /  15.2 °C 56.0 °F /  13.3 °C 30.21in /  1022.9hPa East 2.3mph /  3.7km/h 2.3mph /  3.7km/h 89% 0.00in /  0mm WeatherDisplay:10.37 W/m2 CLR
00:54 59.2 °F /  15.1 °C 55.9 °F /  13.3 °C 30.21in /  1022.9hPa East 2.3mph /  3.7km/h 2.3mph /  3.7km/h 89% 0.00in /  0mm WeatherDisplay:10.37 W/m2 CLR
00:59 59.0 °F /  15 °C 55.7 °F /  13.2 °C 30.21in /  1022.9hPa Calm     89% 0.00in /  0mm WeatherDisplay:10.37 W/m2 CLR
01:04 58.7 °F /  14.8 °C 55.4 °F /  13 °C 30.21in /  1022.9hPa East 2.3mph /  3.7km/h 2.3mph /  3.7km/h 89% 0.00in /  0mm WeatherDisplay:10.37 W/m2 CLR
01:09 58.5 °F /  14.7 °C 55.5 °F /  13.1 °C 30.21in /  1022.9hPa Calm   0.1mph /  0.2km/h 90% 0.00in /  0mm WeatherDisplay:10.37 W/m2 CLR
01:14 58.3 °F /  14.6 °C 55.3 °F /  12.9 °C 30.20in /  1022.6hPa East 3.5mph /  5.6km/h 3.5mph /  5.6km/h 90% 0.00in /  0mm WeatherDisplay:10.37 W/m2 CLR
01:19 58.2 °F /  14.6 °C 55.5 °F /  13.1 °C 30.21in /  1022.9hPa East 1.2mph /  1.9km/h 1.2mph /  1.9km/h 91% 0.00in /  0mm WeatherDisplay:10.37 W/m2 CLR
01:24 58.1 °F /  14.5 °C 55.4 °F /  13 °C 30.20in /  1022.6hPa East 2.3mph /  3.7km/h 2.3mph /  3.7km/h 91% 0.00in /  0mm WeatherDisplay:10.37 W/m2 CLR
01:29 57.9 °F /  14.4 °C 55.2 °F /  12.9 °C 30.20in /  1022.6hPa East 2.3mph /  3.7km/h 2.3mph /  3.7km/h 91% 0.00in /  0mm WeatherDisplay:10.37 W/m2 CLR
01:34 57.8 °F /  14.3 °C 55.1 °F /  12.8 °C 30.20in /  1022.6hPa East 1.2mph /  1.9km/h 1.2mph /  1.9km/h 91% 0.00in /  0mm WeatherDisplay:10.37 W/m2 CLR
01:39 57.6 °F /  14.2 °C 55.0 °F /  12.8 °C 30.20in /  1022.6hPa East 1.2mph /  1.9km/h 1.2mph /  1.9km/h 91% 0.00in /  0mm WeatherDisplay:10.37 W/m2 CLR
01:44 57.4 °F /  14.1 °C 54.8 °F /  12.7 °C 30.20in /  1022.6hPa East 1.2mph /  1.9km/h 1.2mph /  1.9km/h 91% 0.00in /  0mm WeatherDisplay:10.37 W/m2 BKN
01:49 57.2 °F /  14 °C 54.6 °F /  12.6 °C 30.20in /  1022.6hPa East 2.3mph /  3.7km/h 2.3mph /  3.7km/h 91% 0.00in /  0mm WeatherDisplay:10.37 W/m2 BKN
01:54 57.0 °F /  13.9 °C 54.7 °F /  12.6 °C 30.20in /  1022.6hPa Calm     92% 0.00in /  0mm WeatherDisplay:10.37 W/m2 BKN
01:59 56.8 °F /  13.8 °C 54.5 °F /  12.5 °C 30.20in /  1022.6hPa Calm     92% 0.00in /  0mm WeatherDisplay:10.37 W/m2 BKN
02:04 56.6 °F /  13.7 °C 54.3 °F /  12.4 °C 30.20in /  1022.6hPa East 1.2mph /  1.9km/h   92% 0.00in /  0mm WeatherDisplay:10.37 W/m2 OVC
02:09 56.5 °F /  13.6 °C 54.2 °F /  12.3 °C 30.20in /  1022.6hPa East 1.2mph /  1.9km/h   92% 0.00in /  0mm WeatherDisplay:10.37 W/m2 OVC
02:14 56.4 °F /  13.6 °C 54.1 °F /  12.3 °C 30.20in /  1022.6hPa East 1.0mph /  1.6km/h 1.0mph /  1.6km/h 92% 0.00in /  0mm WeatherDisplay:10.37 W/m2 OVC
02:19 56.3 °F /  13.5 °C 54.0 °F /  12.2 °C 30.19in /  1022.2hPa East 1.2mph /  1.9km/h 1.2mph /  1.9km/h 92% 0.00in /  0mm WeatherDisplay:10.37 W/m2 OVC
02:24 56.1 °F /  13.4 °C 54.1 °F /  12.3 °C 30.19in /  1022.2hPa East 1.2mph /  1.9km/h 1.2mph /  1.9km/h 93% 0.00in /  0mm WeatherDisplay:10.37 W/m2 OVC
02:29 56.0 °F /  13.3 °C 54.0 °F /  12.2 °C 30.19in /  1022.2hPa East 2.3mph /  3.7km/h 2.3mph /  3.7km/h 93% 0.00in /  0mm WeatherDisplay:10.37 W/m2 OVC
02:34 56.0 °F /  13.3 °C 54.0 °F /  12.2 °C 30.19in /  1022.2hPa East 1.2mph /  1.9km/h   93% 0.00in /  0mm WeatherDisplay:10.37 W/m2 OVC
02:39 55.9 °F /  13.3 °C 53.9 °F /  12.2 °C 30.19in /  1022.2hPa East 1.2mph /  1.9km/h   93% 0.00in /  0mm WeatherDisplay:10.37 W/m2 OVC
02:44 55.9 °F /  13.3 °C 54.2 °F /  12.3 °C 30.19in /  1022.2hPa East 1.2mph /  1.9km/h 1.2mph /  1.9km/h 94% 0.00in /  0mm WeatherDisplay:10.37 W/m2 OVC
02:49 55.9 °F /  13.3 °C 54.2 °F /  12.3 °C 30.18in /  1021.9hPa East 1.2mph /  1.9km/h 1.2mph /  1.9km/h 94% 0.00in /  0mm WeatherDisplay:10.37 W/m2 OVC
02:54 56.0 °F /  13.3 °C 54.3 °F /  12.4 °C 30.18in /  1021.9hPa East 2.0mph /  3.2km/h 2.0mph /  3.2km/h 94% 0.00in /  0mm WeatherDisplay:10.37 W/m2 OVC
02:59 56.1 °F /  13.4 °C 54.4 °F /  12.4 °C 30.18in /  1021.9hPa East 2.3mph /  3.7km/h 2.3mph /  3.7km/h 94% 0.00in /  0mm WeatherDisplay:10.37 W/m2 OVC
03:04 56.0 °F /  13.3 °C 54.3 °F /  12.4 °C 30.18in /  1021.9hPa East 1.2mph /  1.9km/h 1.2mph /  1.9km/h 94% 0.00in /  0mm WeatherDisplay:10.37 W/m2 OVC
03:09 56.0 °F /  13.3 °C 54.0 °F /  12.2 °C 30.18in /  1021.9hPa East 1.2mph /  1.9km/h 1.2mph /  1.9km/h 93% 0.00in /  0mm WeatherDisplay:10.37 W/m2 OVC
03:14 56.0 °F /  13.3 °C 54.0 °F /  12.2 °C 30.18in /  1021.9hPa East 1.2mph /  1.9km/h 1.2mph /  1.9km/h 93% 0.00in /  0mm WeatherDisplay:10.37 W/m2 OVC
03:19 55.9 °F /  13.3 °C 53.9 °F /  12.2 °C 30.18in /  1021.9hPa East 1.2mph /  1.9km/h 1.2mph /  1.9km/h 93% 0.00in /  0mm WeatherDisplay:10.37 W/m2 OVC
03:20 55.8 °F /  13.2 °C 53.8 °F /  12.1 °C 30.18in /  1021.9hPa East 1.2mph /  1.9km/h 1.2mph /  1.9km/h 93% 0.00in /  0mm WeatherDisplay:10.37 W/m2 OVC
03:25 55.7 °F /  13.2 °C 53.7 °F /  12.1 °C 30.18in /  1021.9hPa East 2.3mph /  3.7km/h 2.3mph /  3.7km/h 93% 0.00in /  0mm WeatherDisplay:10.37 W/m2 OVC
03:30 55.6 °F /  13.1 °C 53.6 °F /  12 °C 30.17in /  1021.6hPa East 1.2mph /  1.9km/h 1.2mph /  1.9km/h 93% 0.00in /  0mm WeatherDisplay:10.37 W/m2 OVC
03:35 55.5 °F /  13.1 °C 53.5 °F /  11.9 °C 30.18in /  1021.9hPa East 2.3mph /  3.7km/h 2.3mph /  3.7km/h 93% 0.00in /  0mm WeatherDisplay:10.37 W/m2 OVC
03:40 55.3 °F /  12.9 °C 53.3 °F /  11.8 °C 30.17in /  1021.6hPa East 3.5mph /  5.6km/h 3.5mph /  5.6km/h 93% 0.00in /  0mm WeatherDisplay:10.37 W/m2 OVC
03:45 55.2 °F /  12.9 °C 53.5 °F /  11.9 °C 30.18in /  1021.9hPa East 2.3mph /  3.7km/h 2.3mph /  3.7km/h 94% 0.00in /  0mm WeatherDisplay:10.37 W/m2 OVC
03:50 55.0 °F /  12.8 °C 53.3 °F /  11.8 °C 30.18in /  1021.9hPa East 2.3mph /  3.7km/h 2.3mph /  3.7km/h 94% 0.00in /  0mm WeatherDisplay:10.37 W/m2 OVC
03:55 54.9 °F /  12.7 °C 53.2 °F /  11.8 °C 30.17in /  1021.6hPa East 2.3mph /  3.7km/h 2.3mph /  3.7km/h 94% 0.00in /  0mm WeatherDisplay:10.37 W/m2 OVC
04:00 54.8 °F /  12.7 °C 53.1 °F /  11.7 °C 30.18in /  1021.9hPa East 1.2mph /  1.9km/h 1.2mph /  1.9km/h 94% 0.00in /  0mm WeatherDisplay:10.37 W/m2 OVC
04:05 54.7 °F /  12.6 °C 53.0 °F /  11.7 °C 30.17in /  1021.6hPa East 2.3mph /  3.7km/h 2.3mph /  3.7km/h 94% 0.00in /  0mm WeatherDisplay:10.37 W/m2 OVC
04:10 54.6 °F /  12.6 °C 52.9 °F /  11.6 °C 30.17in /  1021.6hPa East 1.2mph /  1.9km/h   94% 0.00in /  0mm WeatherDisplay:10.37 W/m2 OVC
04:15 54.5 °F /  12.5 °C 52.8 °F /  11.6 °C 30.18in /  1021.9hPa East 2.0mph /  3.2km/h 2.0mph /  3.2km/h 94% 0.00in /  0mm WeatherDisplay:10.37 W/m2 OVC
04:20 54.6 °F /  12.6 °C 52.9 °F /  11.6 °C 30.18in /  1021.9hPa East 3.5mph /  5.6km/h 3.5mph /  5.6km/h 94% 0.00in /  0mm WeatherDisplay:10.37 W/m2 OVC
04:25 54.5 °F /  12.5 °C 52.8 °F /  11.6 °C 30.18in /  1021.9hPa Calm     94% 0.00in /  0mm WeatherDisplay:10.37 W/m2 SCT
04:30 54.4 °F /  12.4 °C 52.7 °F /  11.5 °C 30.18in /  1021.9hPa Calm     94% 0.00in /  0mm WeatherDisplay:10.37 W/m2 SCT
04:35 54.3 °F /  12.4 °C 52.6 °F /  11.4 °C 30.18in /  1021.9hPa Calm     94% 0.00in /  0mm WeatherDisplay:10.37 W/m2 SCT
04:40 54.2 °F /  12.3 °C 52.5 °F /  11.4 °C 30.18in /  1021.9hPa Calm     94% 0.00in /  0mm WeatherDisplay:10.37 W/m2 SCT
04:45 54.3 °F /  12.4 °C 52.9 °F /  11.6 °C 30.18in /  1021.9hPa Calm     95% 0.00in /  0mm WeatherDisplay:10.37 W/m2 CLR
04:50 54.3 °F /  12.4 °C 52.9 °F /  11.6 °C 30.18in /  1021.9hPa East 1.2mph /  1.9km/h 1.2mph /  1.9km/h 95% 0.00in /  0mm WeatherDisplay:10.37 W/m2 CLR
04:55 54.4 °F /  12.4 °C 53.0 °F /  11.7 °C 30.18in /  1021.9hPa East 1.2mph /  1.9km/h   95% 0.00in /  0mm WeatherDisplay:10.37 W/m2 CLR
05:00 54.3 °F /  12.4 °C 52.9 °F /  11.6 °C 30.18in /  1021.9hPa Calm     95% 0.00in /  0mm WeatherDisplay:10.37 W/m2 CLR
05:05 54.2 °F /  12.3 °C 52.8 °F /  11.6 °C 30.18in /  1021.9hPa Calm     95% 0.00in /  0mm WeatherDisplay:10.37 W/m2 SCT
05:10 54.1 °F /  12.3 °C 52.7 °F /  11.5 °C 30.18in /  1021.9hPa East 1.2mph /  1.9km/h 1.2mph /  1.9km/h 95% 0.00in /  0mm WeatherDisplay:10.37 W/m2 SCT
05:15 54.1 °F /  12.3 °C 52.7 °F /  11.5 °C 30.18in /  1021.9hPa East 1.0mph /  1.6km/h 1.0mph /  1.6km/h 95% 0.00in /  0mm WeatherDisplay:10.37 W/m2 SCT
05:20 53.9 °F /  12.2 °C 52.2 °F /  11.2 °C 30.18in /  1021.9hPa East 1.2mph /  1.9km/h 1.2mph /  1.9km/h 94% 0.00in /  0mm WeatherDisplay:10.37 W/m2 SCT
05:25 53.9 °F /  12.2 °C 52.5 °F /  11.4 °C 30.18in /  1021.9hPa Calm     95% 0.00in /  0mm WeatherDisplay:10.37 W/m2 CLR
05:30 53.9 °F /  12.2 °C 52.5 °F /  11.4 °C 30.18in /  1021.9hPa East 1.2mph /  1.9km/h 1.2mph /  1.9km/h 95% 0.00in /  0mm WeatherDisplay:10.37 W/m2 CLR
05:35 54.0 °F /  12.2 °C 52.6 °F /  11.4 °C 30.18in /  1021.9hPa East 2.3mph /  3.7km/h 2.3mph /  3.7km/h 95% 0.00in /  0mm WeatherDisplay:10.37 W/m2 CLR
05:40 54.0 °F /  12.2 °C 52.6 °F /  11.4 °C 30.19in /  1022.2hPa Calm   0.1mph /  0.2km/h 95% 0.00in /  0mm WeatherDisplay:10.37 W/m2 CLR
05:45 54.0 °F /  12.2 °C 52.6 °F /  11.4 °C 30.19in /  1022.2hPa East 1.2mph /  1.9km/h   95% 0.00in /  0mm WeatherDisplay:10.37 W/m2 CLR
05:50 54.0 °F /  12.2 °C 52.6 °F /  11.4 °C 30.19in /  1022.2hPa Calm     95% 0.00in /  0mm WeatherDisplay:10.37 W/m2 CLR
05:55 53.9 °F /  12.2 °C 52.5 °F /  11.4 °C 30.19in /  1022.2hPa Calm     95% 0.00in /  0mm WeatherDisplay:10.37 W/m2 CLR
06:00 53.9 °F /  12.2 °C 52.5 °F /  11.4 °C 30.19in /  1022.2hPa Calm     95% 0.00in /  0mm WeatherDisplay:10.37 W/m2 CLR
06:05 53.8 °F /  12.1 °C 52.4 °F /  11.3 °C 30.19in /  1022.2hPa Calm     95% 0.00in /  0mm WeatherDisplay:10.37 W/m2 CLR
06:10 53.9 °F /  12.2 °C 52.7 °F /  11.5 °C 30.19in /  1022.2hPa Calm     96% 0.00in /  0mm WeatherDisplay:10.37 W/m2 CLR
06:15 54.0 °F /  12.2 °C 52.8 °F /  11.6 °C 30.19in /  1022.2hPa East 2.3mph /  3.7km/h 2.3mph /  3.7km/h 96% 0.00in /  0mm WeatherDisplay:10.37 W/m2 CLR
06:20 54.2 °F /  12.3 °C 53.0 °F /  11.7 °C 30.19in /  1022.2hPa East 2.3mph /  3.7km/h 2.3mph /  3.7km/h 96% 0.00in /  0mm WeatherDisplay:10.37 W/m2 CLR
06:25 54.3 °F /  12.4 °C 53.1 °F /  11.7 °C 30.19in /  1022.2hPa East 1.2mph /  1.9km/h 1.2mph /  1.9km/h 96% 0.00in /  0mm WeatherDisplay:10.37 W/m2 SCT
06:30 54.3 °F /  12.4 °C 53.1 °F /  11.7 °C 30.19in /  1022.2hPa East 2.3mph /  3.7km/h 2.3mph /  3.7km/h 96% 0.00in /  0mm WeatherDisplay:10.37 W/m2 SCT
06:35 54.3 °F /  12.4 °C 52.9 °F /  11.6 °C 30.19in /  1022.2hPa East 2.3mph /  3.7km/h 2.3mph /  3.7km/h 95% 0.00in /  0mm WeatherDisplay:10.37 W/m2 SCT
06:40 54.3 °F /  12.4 °C 52.9 °F /  11.6 °C 30.20in /  1022.6hPa East 2.3mph /  3.7km/h 2.3mph /  3.7km/h 95% 0.00in /  0mm WeatherDisplay:10.37 W/m2 SCT
06:45 54.3 °F /  12.4 °C 52.9 °F /  11.6 °C 30.19in /  1022.2hPa East 1.2mph /  1.9km/h 1.2mph /  1.9km/h 95% 0.00in /  0mm WeatherDisplay:10.37 W/m2 SCT
06:50 54.3 °F /  12.4 °C 52.9 °F /  11.6 °C 30.19in /  1022.2hPa East 1.2mph /  1.9km/h 1.2mph /  1.9km/h 95% 0.00in /  0mm WeatherDisplay:10.37 W/m2 SCT
06:55 54.3 °F /  12.4 °C 52.9 °F /  11.6 °C 30.19in /  1022.2hPa East 1.2mph /  1.9km/h 1.2mph /  1.9km/h 95% 0.00in /  0mm WeatherDisplay:10.37 W/m2 SCT
07:00 54.2 °F /  12.3 °C 52.8 °F /  11.6 °C 30.20in /  1022.6hPa East 1.2mph /  1.9km/h 1.2mph /  1.9km/h 95% 0.00in /  0mm WeatherDisplay:10.37 W/m2 SCT
07:05 54.0 °F /  12.2 °C 52.6 °F /  11.4 °C 30.20in /  1022.6hPa East 1.2mph /  1.9km/h 1.2mph /  1.9km/h 95% 0.00in /  0mm WeatherDisplay:10.37 W/m2 CLR
07:10 54.0 °F /  12.2 °C 52.6 °F /  11.4 °C 30.20in /  1022.6hPa East 1.2mph /  1.9km/h 1.2mph /  1.9km/h 95% 0.00in /  0mm WeatherDisplay:10.37 W/m2 CLR
07:15 54.0 °F /  12.2 °C 52.6 °F /  11.4 °C 30.20in /  1022.6hPa East 1.2mph /  1.9km/h 1.2mph /  1.9km/h 95% 0.00in /  0mm WeatherDisplay:10.37 W/m2 CLR
07:20 53.9 °F /  12.2 °C 52.5 °F /  11.4 °C 30.20in /  1022.6hPa East 1.2mph /  1.9km/h 1.2mph /  1.9km/h 95% 0.00in /  0mm WeatherDisplay:10.37 W/m2 CLR
07:25 53.9 °F /  12.2 °C 52.5 °F /  11.4 °C 30.20in /  1022.6hPa East 1.2mph /  1.9km/h   95% 0.00in /  0mm WeatherDisplay:10.37 W/m2 CLR
07:30 53.9 °F /  12.2 °C 52.5 °F /  11.4 °C 30.20in /  1022.6hPa East 1.2mph /  1.9km/h   95% 0.00in /  0mm WeatherDisplay:10.37 W/m2 CLR
07:35 53.8 °F /  12.1 °C 52.4 °F /  11.3 °C 30.20in /  1022.6hPa East 1.0mph /  1.6km/h   95% 0.00in /  0mm WeatherDisplay:10.37 W/m2 CLR
07:40 54.0 °F /  12.2 °C 52.6 °F /  11.4 °C 30.20in /  1022.6hPa East 2.3mph /  3.7km/h 2.3mph /  3.7km/h 95% 0.00in /  0mm WeatherDisplay:10.37 W/m2 CLR
07:45 54.2 °F /  12.3 °C 52.8 °F /  11.6 °C 30.21in /  1022.9hPa East 2.3mph /  3.7km/h 2.3mph /  3.7km/h 95% 0.00in /  0mm WeatherDisplay:10.37 W/m2 CLR
07:50 54.4 °F /  12.4 °C 53.0 °F /  11.7 °C 30.20in /  1022.6hPa East 2.3mph /  3.7km/h 2.3mph /  3.7km/h 95% 0.00in /  0mm WeatherDisplay:10.37 W/m2 CLR
07:55 54.6 °F /  12.6 °C 53.2 °F /  11.8 °C 30.20in /  1022.6hPa East 1.2mph /  1.9km/h 1.2mph /  1.9km/h 95% 0.00in /  0mm WeatherDisplay:10.37 W/m2 CLR
08:00 54.8 °F /  12.7 °C 53.4 °F /  11.9 °C 30.20in /  1022.6hPa East 1.2mph /  1.9km/h 1.2mph /  1.9km/h 95% 0.00in /  0mm WeatherDisplay:10.37 W/m2 CLR
08:05 55.2 °F /  12.9 °C 53.8 °F /  12.1 °C 30.20in /  1022.6hPa East 2.3mph /  3.7km/h 2.3mph /  3.7km/h 95% 0.00in /  0mm WeatherDisplay:10.37 W/m2 CLR
08:10 55.7 °F /  13.2 °C 54.3 °F /  12.4 °C 30.21in /  1022.9hPa Calm   0.6mph /  1km/h 95% 0.00in /  0mm WeatherDisplay:10.37 W/m2 CLR
08:15 56.4 °F /  13.6 °C 54.9 °F /  12.7 °C 30.20in /  1022.6hPa East 2.3mph /  3.7km/h 2.3mph /  3.7km/h 95% 0.00in /  0mm WeatherDisplay:10.37 W/m2 CLR
08:20 56.9 °F /  13.8 °C 55.2 °F /  12.9 °C 30.20in /  1022.6hPa NE 3.5mph /  5.6km/h 3.5mph /  5.6km/h 94% 0.00in /  0mm WeatherDisplay:10.37 W/m2 CLR
08:25 57.4 °F /  14.1 °C 55.6 °F /  13.1 °C 30.20in /  1022.6hPa NE 1.2mph /  1.9km/h 1.2mph /  1.9km/h 94% 0.00in /  0mm WeatherDisplay:10.37 W/m2 CLR
08:30 57.8 °F /  14.3 °C 55.7 °F /  13.2 °C 30.20in /  1022.6hPa NE 2.3mph /  3.7km/h 2.3mph /  3.7km/h 93% 0.00in /  0mm WeatherDisplay:10.37 W/m2 CLR
08:35 58.1 °F /  14.5 °C 56.0 °F /  13.3 °C 30.20in /  1022.6hPa NE 2.0mph /  3.2km/h 2.0mph /  3.2km/h 93% 0.00in /  0mm WeatherDisplay:10.37 W/m2 CLR
08:40 58.2 °F /  14.6 °C 55.8 °F /  13.2 °C 30.20in /  1022.6hPa NE 2.3mph /  3.7km/h 2.3mph /  3.7km/h 92% 0.00in /  0mm WeatherDisplay:10.37 W/m2 CLR
08:45 58.4 °F /  14.7 °C 56.0 °F /  13.3 °C 30.20in /  1022.6hPa NE 1.2mph /  1.9km/h 1.2mph /  1.9km/h 92% 0.00in /  0mm WeatherDisplay:10.37 W/m2 CLR
08:50 58.7 °F /  14.8 °C 56.3 °F /  13.5 °C 30.20in /  1022.6hPa NE 1.2mph /  1.9km/h   92% 0.00in /  0mm WeatherDisplay:10.37 W/m2 CLR
08:55 59.1 °F /  15.1 °C 56.4 °F /  13.6 °C 30.20in /  1022.6hPa NE 1.2mph /  1.9km/h 1.2mph /  1.9km/h 91% 0.00in /  0mm WeatherDisplay:10.37 W/m2 CLR
09:00 59.7 °F /  15.4 °C 57.0 °F /  13.9 °C 30.20in /  1022.6hPa NNW 2.3mph /  3.7km/h 2.3mph /  3.7km/h 91% 0.00in /  0mm WeatherDisplay:10.37 W/m2 CLR
09:05 60.4 °F /  15.8 °C 57.7 °F /  14.3 °C 30.20in /  1022.6hPa NNW 1.2mph /  1.9km/h 1.2mph /  1.9km/h 91% 0.00in /  0mm WeatherDisplay:10.37 W/m2 CLR
09:10 61.1 °F /  16.2 °C 58.1 °F /  14.5 °C 30.20in /  1022.6hPa NNW 2.3mph /  3.7km/h 2.3mph /  3.7km/h 90% 0.00in /  0mm WeatherDisplay:10.37 W/m2 CLR
09:15 62.1 °F /  16.7 °C 58.5 °F /  14.7 °C 30.20in /  1022.6hPa SW 3.5mph /  5.6km/h 3.5mph /  5.6km/h 88% 0.00in /  0mm WeatherDisplay:10.37 W/m2 CLR
09:20 62.8 °F /  17.1 °C 58.8 °F /  14.9 °C 30.20in /  1022.6hPa SSW 3.5mph /  5.6km/h 3.5mph /  5.6km/h 87% 0.00in /  0mm WeatherDisplay:10.37 W/m2 CLR
09:25 63.2 °F /  17.3 °C 58.9 °F /  14.9 °C 30.20in /  1022.6hPa SW 3.5mph /  5.6km/h 3.5mph /  5.6km/h 86% 0.00in /  0mm WeatherDisplay:10.37 W/m2 CLR
09:30 63.7 °F /  17.6 °C 59.4 °F /  15.2 °C 30.20in /  1022.6hPa SW 2.3mph /  3.7km/h 2.3mph /  3.7km/h 86% 0.00in /  0mm WeatherDisplay:10.37 W/m2 CLR
09:35 64.2 °F /  17.9 °C 59.2 °F /  15.1 °C 30.20in /  1022.6hPa SW 3.5mph /  5.6km/h 3.5mph /  5.6km/h 84% 0.00in /  0mm WeatherDisplay:10.37 W/m2 CLR
09:40 64.5 °F /  18.1 °C 59.5 °F /  15.3 °C 30.20in /  1022.6hPa WSW 3.5mph /  5.6km/h 3.5mph /  5.6km/h 84% 0.00in /  0mm WeatherDisplay:10.37 W/m2 CLR
09:45 64.8 °F /  18.2 °C 59.5 °F /  15.3 °C 30.20in /  1022.6hPa WSW 3.5mph /  5.6km/h 3.5mph /  5.6km/h 83% 0.00in /  0mm WeatherDisplay:10.37 W/m2 SCT
09:50 65.2 °F /  18.4 °C 59.9 °F /  15.5 °C 30.20in /  1022.6hPa South 3.5mph /  5.6km/h 3.5mph /  5.6km/h 83% 0.00in /  0mm WeatherDisplay:10.37 W/m2 SCT
09:55 65.4 °F /  18.6 °C 59.7 °F /  15.4 °C 30.19in /  1022.2hPa SSW 4.6mph /  7.4km/h 4.6mph /  7.4km/h 82% 0.00in /  0mm WeatherDisplay:10.37 W/m2 SCT
10:00 65.6 °F /  18.7 °C 59.9 °F /  15.5 °C 30.19in /  1022.2hPa WSW 4.6mph /  7.4km/h 4.6mph /  7.4km/h 82% 0.00in /  0mm WeatherDisplay:10.37 W/m2 SCT
10:05 66.1 °F /  18.9 °C 60.4 °F /  15.8 °C 30.19in /  1022.2hPa WSW 2.3mph /  3.7km/h 2.3mph /  3.7km/h 82% 0.00in /  0mm WeatherDisplay:10.37 W/m2 CLR
10:10 66.7 °F /  19.3 °C 60.6 °F /  15.9 °C 30.19in /  1022.2hPa SW 3.5mph /  5.6km/h 3.5mph /  5.6km/h 81% 0.00in /  0mm WeatherDisplay:10.37 W/m2 CLR
10:15 67.2 °F /  19.6 °C 60.8 °F /  16 °C 30.19in /  1022.2hPa West 6.0mph /  9.7km/h 6.0mph /  9.7km/h 80% 0.00in /  0mm WeatherDisplay:10.37 W/m2 CLR
10:20 67.8 °F /  19.9 °C 61.0 °F /  16.1 °C 30.19in /  1022.2hPa South 8.1mph /  13km/h 8.1mph /  13km/h 79% 0.00in /  0mm WeatherDisplay:10.37 W/m2 CLR
10:25 68.5 °F /  20.3 °C 62.0 °F /  16.7 °C 30.19in /  1022.2hPa SW 5.8mph /  9.3km/h 5.8mph /  9.3km/h 80% 0.00in /  0mm WeatherDisplay:10.37 W/m2 SCT
10:30 68.8 °F /  20.4 °C 61.3 °F /  16.3 °C 30.19in /  1022.2hPa WSW 8.1mph /  13km/h 8.1mph /  13km/h 77% 0.00in /  0mm WeatherDisplay:10.37 W/m2 SCT
10:35 68.6 °F /  20.3 °C 60.3 °F /  15.7 °C 30.19in /  1022.2hPa WSW 12.7mph /  20.4km/h 12.7mph /  20.4km/h 75% 0.00in /  0mm WeatherDisplay:10.37 W/m2 SCT
10:40 68.5 °F /  20.3 °C 60.6 °F /  15.9 °C 30.19in /  1022.2hPa SW 12.0mph /  19.3km/h 12.0mph /  19.3km/h 76% 0.00in /  0mm WeatherDisplay:10.37 W/m2 SCT
10:45 68.4 °F /  20.2 °C 60.9 °F /  16.1 °C 30.19in /  1022.2hPa WSW 10.0mph /  16.1km/h 10.0mph /  16.1km/h 77% 0.00in /  0mm WeatherDisplay:10.37 W/m2 BKN
10:50 68.2 °F /  20.1 °C 60.7 °F /  15.9 °C 30.20in /  1022.6hPa West 11.5mph /  18.5km/h 11.5mph /  18.5km/h 77% 0.00in /  0mm WeatherDisplay:10.37 W/m2 BKN
10:55 67.9 °F /  19.9 °C 61.1 °F /  16.2 °C 30.20in /  1022.6hPa WSW 11.5mph /  18.5km/h 11.5mph /  18.5km/h 79% 0.00in /  0mm WeatherDisplay:10.37 W/m2 BKN
11:00 67.9 °F /  19.9 °C 61.5 °F /  16.4 °C 30.20in /  1022.6hPa WSW 4.6mph /  7.4km/h 4.6mph /  7.4km/h 80% 0.00in /  0mm WeatherDisplay:10.37 W/m2 BKN
11:05 67.8 °F /  19.9 °C 61.0 °F /  16.1 °C 30.20in /  1022.6hPa SW 6.0mph /  9.7km/h 6.0mph /  9.7km/h 79% 0.00in /  0mm WeatherDisplay:10.37 W/m2 SCT
11:10 67.8 °F /  19.9 °C 61.0 °F /  16.1 °C 30.20in /  1022.6hPa SE 5.8mph /  9.3km/h 5.8mph /  9.3km/h 79% 0.00in /  0mm WeatherDisplay:10.37 W/m2 SCT
11:15 67.7 °F /  19.8 °C 60.9 °F /  16.1 °C 30.19in /  1022.2hPa WSW 6.0mph /  9.7km/h 6.0mph /  9.7km/h 79% 0.00in /  0mm WeatherDisplay:10.37 W/m2 SCT
11:20 67.6 °F /  19.8 °C 60.8 °F /  16 °C 30.19in /  1022.2hPa WSW 11.5mph /  18.5km/h 11.5mph /  18.5km/h 79% 0.00in /  0mm WeatherDisplay:10.37 W/m2 SCT
11:25 67.8 °F /  19.9 °C 60.6 °F /  15.9 °C 30.19in /  1022.2hPa WSW 8.1mph /  13km/h 8.1mph /  13km/h 78% 0.00in /  0mm WeatherDisplay:10.37 W/m2 SCT
11:30 68.3 °F /  20.2 °C 61.1 °F /  16.2 °C 30.19in /  1022.2hPa SW 10.0mph /  16.1km/h 10.0mph /  16.1km/h 78% 0.00in /  0mm WeatherDisplay:10.37 W/m2 SCT
11:35 68.3 °F /  20.2 °C 60.8 °F /  16 °C 30.19in /  1022.2hPa SW 6.9mph /  11.1km/h 6.9mph /  11.1km/h 77% 0.00in /  0mm WeatherDisplay:10.37 W/m2 SCT
11:40 68.3 °F /  20.2 °C 60.8 °F /  16 °C 30.19in /  1022.2hPa SW 7.0mph /  11.3km/h 7.0mph /  11.3km/h 77% 0.00in /  0mm WeatherDisplay:10.37 W/m2 SCT
11:45 67.8 °F /  19.9 °C 60.6 °F /  15.9 °C 30.19in /  1022.2hPa West 8.1mph /  13km/h 8.1mph /  13km/h 78% 0.00in /  0mm WeatherDisplay:10.37 W/m2 BKN
11:50 67.2 °F /  19.6 °C 60.4 °F /  15.8 °C 30.18in /  1021.9hPa West 11.5mph /  18.5km/h 11.5mph /  18.5km/h 79% 0.00in /  0mm WeatherDisplay:10.37 W/m2 BKN
11:55 67.4 °F /  19.7 °C 61.3 °F /  16.3 °C 30.18in /  1021.9hPa SW 6.9mph /  11.1km/h 6.9mph /  11.1km/h 81% 0.00in /  0mm WeatherDisplay:10.37 W/m2 BKN
12:00 67.9 °F /  19.9 °C 61.8 °F /  16.6 °C 30.18in /  1021.9hPa South 9.2mph /  14.8km/h 9.2mph /  14.8km/h 81% 0.00in /  0mm WeatherDisplay:10.37 W/m2 BKN
12:05 67.9 °F /  19.9 °C 60.7 °F /  15.9 °C 30.18in /  1021.9hPa WSW 16.1mph /  25.9km/h 16.1mph /  25.9km/h 78% 0.00in /  0mm WeatherDisplay:10.37 W/m2 OVC
12:10 67.6 °F /  19.8 °C 60.8 °F /  16 °C 30.18in /  1021.9hPa WSW 5.8mph /  9.3km/h 5.8mph /  9.3km/h 79% 0.00in /  0mm WeatherDisplay:10.37 W/m2 OVC
12:15 67.5 °F /  19.7 °C 60.7 °F /  15.9 °C 30.18in /  1021.9hPa West 12.7mph /  20.4km/h 12.7mph /  20.4km/h 79% 0.00in /  0mm WeatherDisplay:10.37 W/m2 OVC
12:20 66.7 °F /  19.3 °C 60.3 °F /  15.7 °C 30.17in /  1021.6hPa WSW 13.8mph /  22.2km/h 13.8mph /  22.2km/h 80% 0.00in /  0mm WeatherDisplay:10.37 W/m2 OVC
12:25 66.6 °F /  19.2 °C 60.9 °F /  16.1 °C 30.17in /  1021.6hPa SSW 9.2mph /  14.8km/h 9.2mph /  14.8km/h 82% 0.00in /  0mm WeatherDisplay:10.37 W/m2 OVC
12:30 66.6 °F /  19.2 °C 60.9 °F /  16.1 °C 30.17in /  1021.6hPa WSW 11.5mph /  18.5km/h 11.5mph /  18.5km/h 82% 0.00in /  0mm WeatherDisplay:10.37 W/m2 OVC
12:35 66.2 °F /  19 °C 60.8 °F /  16 °C 30.17in /  1021.6hPa SSW 9.2mph /  14.8km/h 9.2mph /  14.8km/h 83% 0.00in /  0mm WeatherDisplay:10.37 W/m2 OVC
12:40 66.0 °F /  18.9 °C 61.0 °F /  16.1 °C 30.17in /  1021.6hPa SW 7.0mph /  11.3km/h 7.0mph /  11.3km/h 84% 0.00in /  0mm WeatherDisplay:10.37 W/m2 OVC
12:45 65.8 °F /  18.8 °C 60.8 °F /  16 °C 30.17in /  1021.6hPa SW 6.9mph /  11.1km/h 6.9mph /  11.1km/h 84% 0.00in /  0mm WeatherDisplay:10.37 W/m2 OVC
12:50 65.8 °F /  18.8 °C 60.8 °F /  16 °C 30.17in /  1021.6hPa SW 6.9mph /  11.1km/h 6.9mph /  11.1km/h 84% 0.00in /  0mm WeatherDisplay:10.37 W/m2 OVC
12:55 65.7 °F /  18.7 °C 60.7 °F /  15.9 °C 30.17in /  1021.6hPa SW 8.1mph /  13km/h 8.1mph /  13km/h 84% 0.00in /  0mm WeatherDisplay:10.37 W/m2 OVC
13:00 65.7 °F /  18.7 °C 61.0 °F /  16.1 °C 30.17in /  1021.6hPa WSW 7.0mph /  11.3km/h 7.0mph /  11.3km/h 85% 0.00in /  0mm WeatherDisplay:10.37 W/m2 OVC
13:05 65.7 °F /  18.7 °C 61.0 °F /  16.1 °C 30.16in /  1021.2hPa South 10.4mph /  16.7km/h 10.4mph /  16.7km/h 85% 0.00in /  0mm WeatherDisplay:10.37 W/m2 OVC
13:10 66.0 °F /  18.9 °C 61.3 °F /  16.3 °C 30.16in /  1021.2hPa SSW 8.1mph /  13km/h 8.1mph /  13km/h 85% 0.00in /  0mm WeatherDisplay:10.37 W/m2 OVC
13:15 66.1 °F /  18.9 °C 61.1 °F /  16.2 °C 30.16in /  1021.2hPa SSW 10.4mph /  16.7km/h 10.4mph /  16.7km/h 84% 0.00in /  0mm WeatherDisplay:10.37 W/m2 OVC
13:20 66.0 °F /  18.9 °C 60.6 °F /  15.9 °C 30.16in /  1021.2hPa SW 8.0mph /  12.9km/h 8.0mph /  12.9km/h 83% 0.00in /  0mm WeatherDisplay:10.37 W/m2 OVC
13:25 65.9 °F /  18.8 °C 60.9 °F /  16.1 °C 30.16in /  1021.2hPa WSW 8.1mph /  13km/h 8.1mph /  13km/h 84% 0.00in /  0mm WeatherDisplay:10.37 W/m2 OVC
13:30 65.8 °F /  18.8 °C 60.8 °F /  16 °C 30.15in /  1020.9hPa SSW 6.9mph /  11.1km/h 6.9mph /  11.1km/h 84% 0.00in /  0mm WeatherDisplay:10.37 W/m2 OVC
13:35 65.7 °F /  18.7 °C 61.4 °F /  16.3 °C 30.15in /  1020.9hPa SW 8.1mph /  13km/h 8.1mph /  13km/h 86% 0.00in /  0mm WeatherDisplay:10.37 W/m2 OVC
13:40 65.6 °F /  18.7 °C 61.6 °F /  16.4 °C 30.15in /  1020.9hPa SSW 5.8mph /  9.3km/h 5.8mph /  9.3km/h 87% 0.00in /  0mm WeatherDisplay:10.37 W/m2 OVC
13:45 65.6 °F /  18.7 °C 61.9 °F /  16.6 °C 30.14in /  1020.5hPa SW 3.5mph /  5.6km/h 3.5mph /  5.6km/h 88% 0.00in /  0mm WeatherDisplay:10.37 W/m2 OVC
13:50 65.7 °F /  18.7 °C 62.3 °F /  16.8 °C 30.14in /  1020.5hPa South 3.5mph /  5.6km/h 3.5mph /  5.6km/h 89% 0.00in /  0mm WeatherDisplay:10.37 W/m2 OVC
13:55 65.8 °F /  18.8 °C 62.4 °F /  16.9 °C 30.14in /  1020.5hPa WSW 5.8mph /  9.3km/h 5.8mph /  9.3km/h 89% 0.00in /  0mm WeatherDisplay:10.37 W/m2 OVC
14:00 65.8 °F /  18.8 °C 61.8 °F /  16.6 °C 30.14in /  1020.5hPa WSW 6.9mph /  11.1km/h 6.9mph /  11.1km/h 87% 0.00in /  0mm WeatherDisplay:10.37 W/m2 OVC
14:05 66.3 °F /  19.1 °C 62.9 °F /  17.2 °C 30.13in /  1020.2hPa West 6.9mph /  11.1km/h 6.9mph /  11.1km/h 89% 0.00in /  0mm WeatherDisplay:10.37 W/m2 OVC
14:10 67.2 °F /  19.6 °C 62.8 °F /  17.1 °C 30.13in /  1020.2hPa West 8.1mph /  13km/h 8.1mph /  13km/h 86% 0.00in /  0mm WeatherDisplay:10.37 W/m2 OVC
14:15 68.2 °F /  20.1 °C 63.8 °F /  17.7 °C 30.13in /  1020.2hPa West 8.1mph /  13km/h 8.1mph /  13km/h 86% 0.00in /  0mm WeatherDisplay:10.37 W/m2 OVC
14:20 68.6 °F /  20.3 °C 63.2 °F /  17.3 °C 30.13in /  1020.2hPa WSW 6.0mph /  9.7km/h 6.0mph /  9.7km/h 83% 0.00in /  0mm WeatherDisplay:10.37 W/m2 OVC
14:25 68.9 °F /  20.5 °C 62.8 °F /  17.1 °C 30.12in /  1019.9hPa SW 5.8mph /  9.3km/h 5.8mph /  9.3km/h 81% 0.00in /  0mm WeatherDisplay:10.37 W/m2 OVC
14:30 69.1 °F /  20.6 °C 62.3 °F /  16.8 °C 30.12in /  1019.9hPa West 6.9mph /  11.1km/h 6.9mph /  11.1km/h 79% 0.00in /  0mm WeatherDisplay:10.37 W/m2 OVC
14:35 69.3 °F /  20.7 °C 62.8 °F /  17.1 °C 30.12in /  1019.9hPa WSW 9.2mph /  14.8km/h 9.2mph /  14.8km/h 80% 0.00in /  0mm WeatherDisplay:10.37 W/m2 OVC
14:36 69.3 °F /  20.7 °C 62.5 °F /  16.9 °C 30.12in /  1019.9hPa SW 9.2mph /  14.8km/h 9.2mph /  14.8km/h 79% 0.00in /  0mm WeatherDisplay:10.37 W/m2 OVC
14:41 69.5 °F /  20.8 °C 62.7 °F /  17.1 °C 30.11in /  1019.5hPa WSW 6.9mph /  11.1km/h 6.9mph /  11.1km/h 79% 0.00in /  0mm WeatherDisplay:10.37 W/m2 OVC
14:46 70.0 °F /  21.1 °C 62.8 °F /  17.1 °C 30.11in /  1019.5hPa WSW 8.1mph /  13km/h 8.1mph /  13km/h 78% 0.00in /  0mm WeatherDisplay:10.37 W/m2 OVC
14:51 70.0 °F /  21.1 °C 62.0 °F /  16.7 °C 30.11in /  1019.5hPa SSW 9.2mph /  14.8km/h 9.2mph /  14.8km/h 76% 0.00in /  0mm WeatherDisplay:10.37 W/m2 OVC
14:56 70.3 °F /  21.3 °C 62.3 °F /  16.8 °C 30.10in /  1019.2hPa West 6.9mph /  11.1km/h 6.9mph /  11.1km/h 76% 0.00in /  0mm WeatherDisplay:10.37 W/m2 OVC
15:01 71.0 °F /  21.7 °C 63.0 °F /  17.2 °C 30.10in /  1019.2hPa SW 9.2mph /  14.8km/h 9.2mph /  14.8km/h 76% 0.00in /  0mm WeatherDisplay:10.37 W/m2 OVC
15:06 71.6 °F /  22 °C 62.8 °F /  17.1 °C 30.10in /  1019.2hPa West 13.0mph /  20.9km/h 13.0mph /  20.9km/h 74% 0.00in /  0mm WeatherDisplay:10.37 W/m2 BKN
15:11 71.9 °F /  22.2 °C 63.1 °F /  17.3 °C 30.10in /  1019.2hPa West 8.1mph /  13km/h 8.1mph /  13km/h 74% 0.00in /  0mm WeatherDisplay:10.37 W/m2 BKN
15:16 72.1 °F /  22.3 °C 62.9 °F /  17.2 °C 30.09in /  1018.8hPa West 8.1mph /  13km/h 8.1mph /  13km/h 73% 0.00in /  0mm WeatherDisplay:10.37 W/m2 BKN
15:21 72.4 °F /  22.4 °C 62.8 °F /  17.1 °C 30.09in /  1018.8hPa WSW 7.0mph /  11.3km/h 7.0mph /  11.3km/h 72% 0.00in /  0mm WeatherDisplay:10.37 W/m2 BKN
15:26 72.8 °F /  22.7 °C 62.8 °F /  17.1 °C 30.08in /  1018.5hPa SW 5.8mph /  9.3km/h 5.8mph /  9.3km/h 71% 0.00in /  0mm WeatherDisplay:10.37 W/m2 BKN
15:31 73.1 °F /  22.8 °C 62.3 °F /  16.8 °C 30.08in /  1018.5hPa SSW 11.5mph /  18.5km/h 11.5mph /  18.5km/h 69% 0.00in /  0mm WeatherDisplay:10.37 W/m2 BKN
15:36 73.6 °F /  23.1 °C 63.2 °F /  17.3 °C 30.08in /  1018.5hPa West 7.0mph /  11.3km/h 7.0mph /  11.3km/h 70% 0.00in /  0mm WeatherDisplay:10.37 W/m2 SCT
15:41 73.8 °F /  23.2 °C 63.4 °F /  17.4 °C 30.07in /  1018.2hPa SW 3.5mph /  5.6km/h 3.5mph /  5.6km/h 70% 0.00in /  0mm WeatherDisplay:10.37 W/m2 SCT
15:46 73.7 °F /  23.2 °C 62.4 °F /  16.9 °C 30.07in /  1018.2hPa SW 8.1mph /  13km/h 8.1mph /  13km/h 68% 0.00in /  0mm WeatherDisplay:10.37 W/m2 SCT
15:51 74.1 °F /  23.4 °C 63.2 °F /  17.3 °C 30.07in /  1018.2hPa SSW 4.6mph /  7.4km/h 4.6mph /  7.4km/h 69% 0.00in /  0mm WeatherDisplay:10.37 W/m2 SCT
15:56 74.1 °F /  23.4 °C 62.4 °F /  16.9 °C 30.06in /  1017.8hPa SSW 5.8mph /  9.3km/h 5.8mph /  9.3km/h 67% 0.00in /  0mm WeatherDisplay:10.37 W/m2 SCT
16:01 74.1 °F /  23.4 °C 62.0 °F /  16.7 °C 30.06in /  1017.8hPa South 6.9mph /  11.1km/h 6.9mph /  11.1km/h 66% 0.00in /  0mm WeatherDisplay:10.37 W/m2 SCT
16:06 74.4 °F /  23.6 °C 62.3 °F /  16.8 °C 30.06in /  1017.8hPa West 6.9mph /  11.1km/h 6.9mph /  11.1km/h 66% 0.00in /  0mm WeatherDisplay:10.37 W/m2 SCT
16:11 74.0 °F /  23.3 °C 62.3 °F /  16.8 °C 30.06in /  1017.8hPa WSW 8.1mph /  13km/h 8.1mph /  13km/h 67% 0.00in /  0mm WeatherDisplay:10.37 W/m2 SCT
16:16 74.1 °F /  23.4 °C 61.5 °F /  16.4 °C 30.06in /  1017.8hPa SSW 9.2mph /  14.8km/h 9.2mph /  14.8km/h 65% 0.00in /  0mm WeatherDisplay:10.37 W/m2 SCT
16:21 74.5 °F /  23.6 °C 61.9 °F /  16.6 °C 30.06in /  1017.8hPa South 4.0mph /  6.4km/h 4.0mph /  6.4km/h 65% 0.00in /  0mm WeatherDisplay:10.37 W/m2 SCT
16:26 75.1 °F /  23.9 °C 62.1 °F /  16.7 °C 30.05in /  1017.5hPa West 9.0mph /  14.5km/h 9.0mph /  14.5km/h 64% 0.00in /  0mm WeatherDisplay:10.37 W/m2 SCT
16:31 74.6 °F /  23.7 °C 61.6 °F /  16.4 °C 30.05in /  1017.5hPa West 5.8mph /  9.3km/h 5.8mph /  9.3km/h 64% 0.00in /  0mm WeatherDisplay:10.37 W/m2 SCT
16:36 74.7 °F /  23.7 °C 60.8 °F /  16 °C 30.05in /  1017.5hPa SW 6.9mph /  11.1km/h 6.9mph /  11.1km/h 62% 0.00in /  0mm WeatherDisplay:10.37 W/m2 SCT
16:41 74.7 °F /  23.7 °C 61.2 °F /  16.2 °C 30.05in /  1017.5hPa SW 10.4mph /  16.7km/h 10.4mph /  16.7km/h 63% 0.00in /  0mm WeatherDisplay:10.37 W/m2 SCT
16:46 74.4 °F /  23.6 °C 60.9 °F /  16.1 °C 30.05in /  1017.5hPa SW 5.8mph /  9.3km/h 5.8mph /  9.3km/h 63% 0.00in /  0mm WeatherDisplay:10.37 W/m2 SCT
16:51 74.7 °F /  23.7 °C 61.2 °F /  16.2 °C 30.05in /  1017.5hPa WSW 4.6mph /  7.4km/h 4.6mph /  7.4km/h 63% 0.00in /  0mm WeatherDisplay:10.37 W/m2 SCT
16:56 74.8 °F /  23.8 °C 60.9 °F /  16.1 °C 30.04in /  1017.2hPa West 8.1mph /  13km/h 8.1mph /  13km/h 62% 0.00in /  0mm WeatherDisplay:10.37 W/m2 SCT
17:01 74.5 °F /  23.6 °C 61.0 °F /  16.1 °C 30.04in /  1017.2hPa WSW 3.5mph /  5.6km/h 3.5mph /  5.6km/h 63% 0.00in /  0mm WeatherDisplay:10.37 W/m2 SCT
17:06 74.6 °F /  23.7 °C 61.1 °F /  16.2 °C 30.04in /  1017.2hPa SSW 3.5mph /  5.6km/h 3.5mph /  5.6km/h 63% 0.00in /  0mm WeatherDisplay:10.37 W/m2 CLR
17:11 74.8 °F /  23.8 °C 60.9 °F /  16.1 °C 30.04in /  1017.2hPa SW 5.8mph /  9.3km/h 5.8mph /  9.3km/h 62% 0.00in /  0mm WeatherDisplay:10.37 W/m2 CLR
17:16 74.8 °F /  23.8 °C 60.9 °F /  16.1 °C 30.04in /  1017.2hPa West 5.8mph /  9.3km/h 5.8mph /  9.3km/h 62% 0.00in /  0mm WeatherDisplay:10.37 W/m2 CLR
17:21 74.9 °F /  23.8 °C 60.5 °F /  15.8 °C 30.04in /  1017.2hPa SW 10.0mph /  16.1km/h 10.0mph /  16.1km/h 61% 0.00in /  0mm WeatherDisplay:10.37 W/m2 CLR
17:26 75.0 °F /  23.9 °C 59.2 °F /  15.1 °C 30.03in /  1016.8hPa SSW 5.0mph /  8km/h 5.0mph /  8km/h 58% 0.00in /  0mm WeatherDisplay:10.37 W/m2 CLR
17:31 75.2 °F /  24 °C 59.4 °F /  15.2 °C 30.03in /  1016.8hPa West 6.9mph /  11.1km/h 6.9mph /  11.1km/h 58% 0.00in /  0mm WeatherDisplay:10.37 W/m2 CLR
17:36 74.9 °F /  23.8 °C 59.1 °F /  15.1 °C 30.03in /  1016.8hPa SW 5.8mph /  9.3km/h 5.8mph /  9.3km/h 58% 0.00in /  0mm WeatherDisplay:10.37 W/m2 CLR
17:41 74.9 °F /  23.8 °C 60.0 °F /  15.6 °C 30.03in /  1016.8hPa SSW 4.0mph /  6.4km/h 4.0mph /  6.4km/h 60% 0.00in /  0mm WeatherDisplay:10.37 W/m2 CLR
17:46 75.2 °F /  24 °C 58.4 °F /  14.7 °C 30.03in /  1016.8hPa SSW 8.1mph /  13km/h 8.1mph /  13km/h 56% 0.00in /  0mm WeatherDisplay:10.37 W/m2 CLR
17:51 75.3 °F /  24.1 °C 58.0 °F /  14.4 °C 30.03in /  1016.8hPa SSW 10.4mph /  16.7km/h 10.4mph /  16.7km/h 55% 0.00in /  0mm WeatherDisplay:10.37 W/m2 CLR
17:56 75.3 °F /  24.1 °C 58.0 °F /  14.4 °C 30.03in /  1016.8hPa WSW 4.6mph /  7.4km/h 4.6mph /  7.4km/h 55% 0.00in /  0mm WeatherDisplay:10.37 W/m2 CLR
18:01 75.3 °F /  24.1 °C 58.0 °F /  14.4 °C 30.02in /  1016.5hPa SW 8.1mph /  13km/h 8.1mph /  13km/h 55% 0.00in /  0mm WeatherDisplay:10.37 W/m2 CLR
18:06 75.1 °F /  23.9 °C 58.3 °F /  14.6 °C 30.02in /  1016.5hPa SW 8.1mph /  13km/h 8.1mph /  13km/h 56% 0.00in /  0mm WeatherDisplay:10.37 W/m2 CLR
18:11 75.2 °F /  24 °C 58.4 °F /  14.7 °C 30.02in /  1016.5hPa SW 9.2mph /  14.8km/h 9.2mph /  14.8km/h 56% 0.00in /  0mm WeatherDisplay:10.37 W/m2 CLR
18:16 75.7 °F /  24.3 °C 59.3 °F /  15.2 °C 30.02in /  1016.5hPa WSW 4.6mph /  7.4km/h 4.6mph /  7.4km/h 57% 0.00in /  0mm WeatherDisplay:10.37 W/m2 CLR
18:21 75.7 °F /  24.3 °C 57.8 °F /  14.3 °C 30.02in /  1016.5hPa SW 11.5mph /  18.5km/h 11.5mph /  18.5km/h 54% 0.00in /  0mm WeatherDisplay:10.37 W/m2 CLR
18:26 75.5 °F /  24.2 °C 58.2 °F /  14.6 °C 30.02in /  1016.5hPa SW 9.2mph /  14.8km/h 9.2mph /  14.8km/h 55% 0.00in /  0mm WeatherDisplay:10.37 W/m2 CLR
18:31 75.4 °F /  24.1 °C 58.1 °F /  14.5 °C 30.02in /  1016.5hPa SW 8.1mph /  13km/h 8.1mph /  13km/h 55% 0.00in /  0mm WeatherDisplay:10.37 W/m2 CLR
18:36 75.1 °F /  23.9 °C 58.3 °F /  14.6 °C 30.03in /  1016.8hPa WSW 9.2mph /  14.8km/h 9.2mph /  14.8km/h 56% 0.00in /  0mm WeatherDisplay:10.37 W/m2 CLR
18:41 74.9 °F /  23.8 °C 58.6 °F /  14.8 °C 30.03in /  1016.8hPa SW 8.1mph /  13km/h 8.1mph /  13km/h 57% 0.00in /  0mm WeatherDisplay:10.37 W/m2 CLR
18:46 74.7 °F /  23.7 °C 58.9 °F /  14.9 °C 30.03in /  1016.8hPa WSW 4.6mph /  7.4km/h 4.6mph /  7.4km/h 58% 0.00in /  0mm WeatherDisplay:10.37 W/m2 CLR
18:51 74.5 °F /  23.6 °C 58.2 °F /  14.6 °C 30.03in /  1016.8hPa West 10.4mph /  16.7km/h 10.4mph /  16.7km/h 57% 0.00in /  0mm WeatherDisplay:10.37 W/m2 CLR
18:56 74.4 °F /  23.6 °C 58.6 °F /  14.8 °C 30.03in /  1016.8hPa WSW 4.6mph /  7.4km/h 4.6mph /  7.4km/h 58% 0.00in /  0mm WeatherDisplay:10.37 W/m2 CLR
19:01 74.2 °F /  23.4 °C 58.4 °F /  14.7 °C 30.03in /  1016.8hPa WSW 5.8mph /  9.3km/h 5.8mph /  9.3km/h 58% 0.00in /  0mm WeatherDisplay:10.37 W/m2 CLR
19:06 74.1 °F /  23.4 °C 58.3 °F /  14.6 °C 30.03in /  1016.8hPa SW 6.9mph /  11.1km/h 6.9mph /  11.1km/h 58% 0.00in /  0mm WeatherDisplay:10.37 W/m2 SCT
19:11 74.0 °F /  23.3 °C 58.2 °F /  14.6 °C 30.02in /  1016.5hPa SW 6.9mph /  11.1km/h 6.9mph /  11.1km/h 58% 0.00in /  0mm WeatherDisplay:10.37 W/m2 SCT
19:16 73.8 °F /  23.2 °C 58.1 °F /  14.5 °C 30.02in /  1016.5hPa WSW 5.8mph /  9.3km/h 5.8mph /  9.3km/h 58% 0.00in /  0mm WeatherDisplay:10.37 W/m2 SCT
19:21 73.8 °F /  23.2 °C 58.5 °F /  14.7 °C 30.02in /  1016.5hPa SW 3.5mph /  5.6km/h 3.5mph /  5.6km/h 59% 0.00in /  0mm WeatherDisplay:10.37 W/m2 SCT
19:26 73.6 °F /  23.1 °C 58.8 °F /  14.9 °C 30.02in /  1016.5hPa SW 3.5mph /  5.6km/h 3.5mph /  5.6km/h 60% 0.00in /  0mm WeatherDisplay:10.37 W/m2 BKN
19:31 73.4 °F /  23 °C 59.1 °F /  15.1 °C 30.02in /  1016.5hPa SW 3.5mph /  5.6km/h 3.5mph /  5.6km/h 61% 0.00in /  0mm WeatherDisplay:10.37 W/m2 BKN
19:36 73.1 °F /  22.8 °C 59.3 °F /  15.2 °C 30.02in /  1016.5hPa SW 5.8mph /  9.3km/h 5.8mph /  9.3km/h 62% 0.00in /  0mm WeatherDisplay:10.37 W/m2 BKN
19:41 72.4 °F /  22.4 °C 59.5 °F /  15.3 °C 30.03in /  1016.8hPa SW 5.8mph /  9.3km/h 5.8mph /  9.3km/h 64% 0.00in /  0mm WeatherDisplay:10.37 W/m2 BKN
19:46 71.7 °F /  22.1 °C 60.1 °F /  15.6 °C 30.03in /  1016.8hPa South 5.8mph /  9.3km/h 5.8mph /  9.3km/h 67% 0.00in /  0mm WeatherDisplay:10.37 W/m2 SCT
19:51 71.0 °F /  21.7 °C 59.9 °F /  15.5 °C 30.03in /  1016.8hPa SW 4.6mph /  7.4km/h 4.6mph /  7.4km/h 68% 0.00in /  0mm WeatherDisplay:10.37 W/m2 SCT
19:56 70.5 °F /  21.4 °C 59.8 °F /  15.4 °C 30.03in /  1016.8hPa SW 4.6mph /  7.4km/h 4.6mph /  7.4km/h 69% 0.00in /  0mm WeatherDisplay:10.37 W/m2 SCT
19:57 70.4 °F /  21.3 °C 59.7 °F /  15.4 °C 30.03in /  1016.8hPa SW 3.5mph /  5.6km/h 3.5mph /  5.6km/h 69% 0.00in /  0mm WeatherDisplay:10.37 W/m2 SCT
20:02 70.1 °F /  21.2 °C 59.4 °F /  15.2 °C 30.03in /  1016.8hPa SW 5.8mph /  9.3km/h 5.8mph /  9.3km/h 69% 0.00in /  0mm WeatherDisplay:10.37 W/m2 BKN
20:07 70.0 °F /  21.1 °C 59.7 °F /  15.4 °C 30.03in /  1016.8hPa WSW 2.3mph /  3.7km/h 2.3mph /  3.7km/h 70% 0.00in /  0mm WeatherDisplay:10.37 W/m2 BKN
20:12 69.8 °F /  21 °C 59.5 °F /  15.3 °C 30.03in /  1016.8hPa WSW 5.8mph /  9.3km/h 5.8mph /  9.3km/h 70% 0.00in /  0mm WeatherDisplay:10.37 W/m2 BKN
20:17 69.8 °F /  21 °C 59.1 °F /  15.1 °C 30.03in /  1016.8hPa SW 3.5mph /  5.6km/h 3.5mph /  5.6km/h 69% 0.00in /  0mm WeatherDisplay:10.37 W/m2 BKN
20:22 69.8 °F /  21 °C 59.5 °F /  15.3 °C 30.03in /  1016.8hPa SW 3.5mph /  5.6km/h 3.5mph /  5.6km/h 70% 0.00in /  0mm WeatherDisplay:10.37 W/m2 OVC
20:27 69.7 °F /  20.9 °C 59.4 °F /  15.2 °C 30.02in /  1016.5hPa SSW 3.5mph /  5.6km/h 3.5mph /  5.6km/h 70% 0.00in /  0mm WeatherDisplay:10.37 W/m2 OVC
20:32 69.5 °F /  20.8 °C 59.2 °F /  15.1 °C 30.02in /  1016.5hPa SSW 1.2mph /  1.9km/h 1.2mph /  1.9km/h 70% 0.00in /  0mm WeatherDisplay:10.37 W/m2 OVC
20:37 69.4 °F /  20.8 °C 59.2 °F /  15.1 °C 30.03in /  1016.8hPa SSW 2.3mph /  3.7km/h 2.3mph /  3.7km/h 70% 0.00in /  0mm WeatherDisplay:10.37 W/m2 OVC
20:42 69.3 °F /  20.7 °C 59.1 °F /  15.1 °C 30.03in /  1016.8hPa South 3.5mph /  5.6km/h 3.5mph /  5.6km/h 70% 0.00in /  0mm WeatherDisplay:10.37 W/m2 BKN
20:47 69.4 °F /  20.8 °C 59.5 °F /  15.3 °C 30.03in /  1016.8hPa SSE 2.3mph /  3.7km/h 2.3mph /  3.7km/h 71% 0.00in /  0mm WeatherDisplay:10.37 W/m2 BKN
20:52 69.3 °F /  20.7 °C 59.8 °F /  15.4 °C 30.03in /  1016.8hPa SSE 2.3mph /  3.7km/h 2.3mph /  3.7km/h 72% 0.00in /  0mm WeatherDisplay:10.37 W/m2 BKN
20:57 69.0 °F /  20.6 °C 59.9 °F /  15.5 °C 30.03in /  1016.8hPa SSE 2.3mph /  3.7km/h 2.3mph /  3.7km/h 73% 0.00in /  0mm WeatherDisplay:10.37 W/m2 BKN
21:02 68.6 °F /  20.3 °C 59.6 °F /  15.3 °C 30.03in /  1016.8hPa WSW 3.5mph /  5.6km/h 3.5mph /  5.6km/h 73% 0.00in /  0mm WeatherDisplay:10.37 W/m2 BKN
21:07 68.3 °F /  20.2 °C 59.7 °F /  15.4 °C 30.03in /  1016.8hPa SW 3.5mph /  5.6km/h 3.5mph /  5.6km/h 74% 0.00in /  0mm WeatherDisplay:10.37 W/m2 BKN
21:12 68.0 °F /  20 °C 59.4 °F /  15.2 °C 30.03in /  1016.8hPa SW 2.3mph /  3.7km/h 2.3mph /  3.7km/h 74% 0.00in /  0mm WeatherDisplay:10.37 W/m2 BKN
21:17 67.6 °F /  19.8 °C 59.4 °F /  15.2 °C 30.04in /  1017.2hPa WSW 2.3mph /  3.7km/h 2.3mph /  3.7km/h 75% 0.00in /  0mm WeatherDisplay:10.37 W/m2 BKN
21:22 67.3 °F /  19.6 °C 59.1 °F /  15.1 °C 30.04in /  1017.2hPa WSW 3.5mph /  5.6km/h 3.5mph /  5.6km/h 75% 0.00in /  0mm WeatherDisplay:10.37 W/m2 OVC
21:27 67.0 °F /  19.4 °C 59.1 °F /  15.1 °C 30.04in /  1017.2hPa WSW 2.3mph /  3.7km/h 2.3mph /  3.7km/h 76% 0.00in /  0mm WeatherDisplay:10.37 W/m2 OVC
21:32 66.8 °F /  19.3 °C 59.0 °F /  15 °C 30.04in /  1017.2hPa WSW 1.2mph /  1.9km/h 1.2mph /  1.9km/h 76% 0.00in /  0mm WeatherDisplay:10.37 W/m2 OVC
21:37 66.5 °F /  19.2 °C 58.7 °F /  14.8 °C 30.04in /  1017.2hPa WSW 2.3mph /  3.7km/h 2.3mph /  3.7km/h 76% 0.00in /  0mm WeatherDisplay:10.37 W/m2 OVC
21:42 66.2 °F /  19 °C 58.7 °F /  14.8 °C 30.04in /  1017.2hPa WSW 1.2mph /  1.9km/h 1.2mph /  1.9km/h 77% 0.00in /  0mm WeatherDisplay:10.37 W/m2 SCT
21:47 66.0 °F /  18.9 °C 58.5 °F /  14.7 °C 30.04in /  1017.2hPa WSW 1.2mph /  1.9km/h 1.2mph /  1.9km/h 77% 0.00in /  0mm WeatherDisplay:10.37 W/m2 SCT
21:52 65.7 °F /  18.7 °C 58.3 °F /  14.6 °C 30.04in /  1017.2hPa WSW 1.2mph /  1.9km/h 1.2mph /  1.9km/h 77% 0.00in /  0mm WeatherDisplay:10.37 W/m2 SCT
21:57 65.4 °F /  18.6 °C 58.3 °F /  14.6 °C 30.04in /  1017.2hPa Calm     78% 0.00in /  0mm WeatherDisplay:10.37 W/m2 SCT
22:02 65.2 °F /  18.4 °C 58.1 °F /  14.5 °C 30.03in /  1016.8hPa WSW 1.0mph /  1.6km/h 1.0mph /  1.6km/h 78% 0.00in /  0mm WeatherDisplay:10.37 W/m2 CLR
22:07 64.9 °F /  18.3 °C 58.2 °F /  14.6 °C 30.03in /  1016.8hPa Calm     79% 0.00in /  0mm WeatherDisplay:10.37 W/m2 CLR
22:12 64.7 °F /  18.2 °C 58.0 °F /  14.4 °C 30.04in /  1017.2hPa Calm     79% 0.00in /  0mm WeatherDisplay:10.37 W/m2 CLR
22:17 64.4 °F /  18 °C 58.1 °F /  14.5 °C 30.03in /  1016.8hPa WSW 1.2mph /  1.9km/h 1.2mph /  1.9km/h 80% 0.00in /  0mm WeatherDisplay:10.37 W/m2 CLR
22:22 64.3 °F /  17.9 °C 58.0 °F /  14.4 °C 30.03in /  1016.8hPa WSW 1.2mph /  1.9km/h 1.2mph /  1.9km/h 80% 0.00in /  0mm WeatherDisplay:10.37 W/m2 CLR
22:27 64.2 °F /  17.9 °C 57.9 °F /  14.4 °C 30.03in /  1016.8hPa WSW 1.2mph /  1.9km/h 1.2mph /  1.9km/h 80% 0.00in /  0mm WeatherDisplay:10.37 W/m2 CLR
22:32 64.0 °F /  17.8 °C 58.0 °F /  14.4 °C 30.03in /  1016.8hPa WSW 1.2mph /  1.9km/h 1.2mph /  1.9km/h 81% 0.00in /  0mm WeatherDisplay:10.37 W/m2 CLR
22:37 63.7 °F /  17.6 °C 57.7 °F /  14.3 °C 30.03in /  1016.8hPa Calm     81% 0.00in /  0mm WeatherDisplay:10.37 W/m2 CLR
22:42 63.5 °F /  17.5 °C 57.9 °F /  14.4 °C 30.03in /  1016.8hPa Calm     82% 0.00in /  0mm WeatherDisplay:10.37 W/m2 CLR
22:47 63.1 °F /  17.3 °C 57.5 °F /  14.2 °C 30.03in /  1016.8hPa WSW 1.2mph /  1.9km/h 1.2mph /  1.9km/h 82% 0.00in /  0mm WeatherDisplay:10.37 W/m2 CLR
22:52 62.7 °F /  17.1 °C 57.4 °F /  14.1 °C 30.03in /  1016.8hPa WSW 1.2mph /  1.9km/h 1.2mph /  1.9km/h 83% 0.00in /  0mm WeatherDisplay:10.37 W/m2 CLR
22:57 62.4 °F /  16.9 °C 57.5 °F /  14.2 °C 30.03in /  1016.8hPa Calm     84% 0.00in /  0mm WeatherDisplay:10.37 W/m2 CLR
23:02 62.2 °F /  16.8 °C 57.6 °F /  14.2 °C 30.03in /  1016.8hPa Calm     85% 0.00in /  0mm WeatherDisplay:10.37 W/m2 CLR
23:07 61.9 °F /  16.6 °C 57.6 °F /  14.2 °C 30.03in /  1016.8hPa Calm     86% 0.00in /  0mm WeatherDisplay:10.37 W/m2 CLR
23:12 61.6 °F /  16.4 °C 57.3 °F /  14.1 °C 30.03in /  1016.8hPa Calm     86% 0.00in /  0mm WeatherDisplay:10.37 W/m2 CLR
23:17 61.4 °F /  16.3 °C 57.1 °F /  13.9 °C 30.03in /  1016.8hPa Calm     86% 0.00in /  0mm WeatherDisplay:10.37 W/m2 CLR
23:22 61.0 °F /  16.1 °C 56.7 °F /  13.7 °C 30.03in /  1016.8hPa WSW 1.0mph /  1.6km/h   86% 0.00in /  0mm WeatherDisplay:10.37 W/m2 CLR
23:27 60.6 °F /  15.9 °C 56.3 °F /  13.5 °C 30.03in /  1016.8hPa WSW 1.2mph /  1.9km/h   86% 0.00in /  0mm WeatherDisplay:10.37 W/m2 CLR
23:32 60.3 °F /  15.7 °C 56.4 °F /  13.6 °C 30.03in /  1016.8hPa Calm     87% 0.00in /  0mm WeatherDisplay:10.37 W/m2 CLR
23:37 60.0 °F /  15.6 °C 56.4 °F /  13.6 °C 30.03in /  1016.8hPa Calm   0.1mph /  0.2km/h 88% 0.00in /  0mm WeatherDisplay:10.37 W/m2 CLR
23:42 59.7 °F /  15.4 °C 56.1 °F /  13.4 °C 30.03in /  1016.8hPa WSW 1.2mph /  1.9km/h   88% 0.00in /  0mm WeatherDisplay:10.37 W/m2 CLR
23:47 59.6 °F /  15.3 °C 56.3 °F /  13.5 °C 30.03in /  1016.8hPa WSW 1.2mph /  1.9km/h   89% 0.00in /  0mm WeatherDisplay:10.37 W/m2 CLR
23:52 59.4 °F /  15.2 °C 56.1 °F /  13.4 °C 30.03in /  1016.8hPa Calm     89% 0.00in /  0mm WeatherDisplay:10.37 W/m2 CLR
23:57 59.2 °F /  15.1 °C 56.2 °F /  13.4 °C 30.03in /  1016.8hPa Calm     90% 0.00in /  0mm WeatherDisplay:10.37 W/m2 CLR
Smyth Weather
Compliments of Weather Underground - 2.5 mb